ASA671 KGEG-KSEA

Flight info

Callsign ASA671
Flight time 0h 48m
Altitude 26000
Route TEMPL GLASR3
Aircraft B738/M-SDE2E3FGHIRWXY/LB1

Departure

Time 2026-05-01 11:49
Airport Spokane International Airport (KGEG)

Arrival

Time 2026-05-01 12:37
Airport Seattle–Tacoma International Airport (KSEA)
Time Latitude Longitude Altitude Speed Heading
2026-05-01 11:32 47.62334 -117.53986 2374 ft 0 kts 360°
2026-05-01 11:38 47.62329 -117.53986 2374 ft 3 kts 360°
2026-05-01 11:38 47.62308 -117.53986 2376 ft 3 kts 360°
2026-05-01 11:39 47.62291 -117.53986 2377 ft 3 kts
2026-05-01 11:39 47.62274 -117.53990 2375 ft 3 kts 38°
2026-05-01 11:39 47.62268 -117.54006 2377 ft 2 kts 90°
2026-05-01 11:39 47.62268 -117.54036 2374 ft 3 kts 90°
2026-05-01 11:40 47.62268 -117.54042 2374 ft 0 kts 90°
2026-05-01 11:43 47.62268 -117.54040 2374 ft 1 kts 90°
2026-05-01 11:44 47.62267 -117.53887 2376 ft 15 kts 90°
2026-05-01 11:44 47.62222 -117.53753 2375 ft 15 kts 135°
2026-05-01 11:44 47.62194 -117.53636 2374 ft 13 kts 60°
2026-05-01 11:44 47.62265 -117.53523 2377 ft 18 kts 45°
2026-05-01 11:45 47.62365 -117.53373 2376 ft 23 kts 45°
2026-05-01 11:45 47.62486 -117.53190 2374 ft 25 kts 45°
2026-05-01 11:45 47.62606 -117.53010 2374 ft 24 kts 45°
2026-05-01 11:45 47.62718 -117.52840 2374 ft 23 kts 45°
2026-05-01 11:46 47.62827 -117.52677 2377 ft 22 kts 45°
2026-05-01 11:46 47.62933 -117.52518 2375 ft 21 kts 45°
2026-05-01 11:46 47.63034 -117.52366 2376 ft 21 kts 45°
2026-05-01 11:46 47.63134 -117.52216 2374 ft 20 kts 45°
2026-05-01 11:47 47.63223 -117.52080 2375 ft 12 kts 47°
2026-05-01 11:47 47.63223 -117.51998 2376 ft 8 kts 127°
2026-05-01 11:47 47.63184 -117.51941 2374 ft 8 kts 135°
2026-05-01 11:47 47.63147 -117.51886 2374 ft 7 kts 135°
2026-05-01 11:48 47.63101 -117.51868 2374 ft 7 kts 200°
2026-05-01 11:48 47.63065 -117.51916 2379 ft 8 kts 226°
2026-05-01 11:48 47.62882 -117.52191 2376 ft 74 kts 225°
2026-05-01 11:48 47.62354 -117.52986 2375 ft 140 kts 225°
2026-05-01 11:49 47.61581 -117.54165 2616 ft 173 kts 225°
2026-05-01 11:49 47.60763 -117.55413 3606 ft 163 kts 226°
2026-05-01 11:49 47.59948 -117.56644 4291 ft 175 kts 225°
2026-05-01 11:49 47.59050 -117.57999 4839 ft 196 kts 229°
2026-05-01 11:50 47.58468 -117.59951 5047 ft 224 kts 263°
2026-05-01 11:50 47.58500 -117.62372 5347 ft 244 kts 275°
2026-05-01 11:50 47.58709 -117.64933 5763 ft 261 kts 277°
2026-05-01 11:50 47.58954 -117.67569 6280 ft 274 kts 277°
2026-05-01 11:51 47.59226 -117.70471 7167 ft 277 kts 276°
2026-05-01 11:51 47.59473 -117.73285 8116 ft 278 kts 276°
2026-05-01 11:51 47.59714 -117.76140 9018 ft 281 kts 275°
2026-05-01 11:51 47.59956 -117.79034 9902 ft 285 kts 275°
2026-05-01 11:52 47.60202 -117.81991 10506 ft 298 kts 275°
2026-05-01 11:52 47.60466 -117.85184 10692 ft 325 kts 275°
2026-05-01 11:52 47.60748 -117.88586 11192 ft 338 kts 275°
2026-05-01 11:52 47.61038 -117.92069 11929 ft 343 kts 275°
2026-05-01 11:53 47.61333 -117.95598 12748 ft 346 kts 275°
2026-05-01 11:53 47.61629 -117.99154 13529 ft 350 kts 275°
2026-05-01 11:53 47.61927 -118.02758 14247 ft 355 kts 275°
2026-05-01 11:53 47.62224 -118.06353 14976 ft 357 kts 275°
2026-05-01 11:54 47.62525 -118.10024 15726 ft 359 kts 275°
2026-05-01 11:54 47.62827 -118.13711 16440 ft 363 kts 275°
2026-05-01 11:54 47.63130 -118.17438 17141 ft 366 kts 275°
2026-05-01 11:54 47.63435 -118.21198 17858 ft 369 kts 275°
2026-05-01 11:55 47.63741 -118.24996 18536 ft 372 kts 275°
2026-05-01 11:55 47.64048 -118.28819 19144 ft 375 kts 275°
2026-05-01 11:55 47.64356 -118.32673 19757 ft 378 kts 275°
2026-05-01 11:55 47.64662 -118.36510 20392 ft 380 kts 275°
2026-05-01 11:56 47.64970 -118.40384 21174 ft 377 kts 275°
2026-05-01 11:56 47.65274 -118.44224 22010 ft 373 kts 275°
2026-05-01 11:56 47.65574 -118.48030 22796 ft 371 kts 275°
2026-05-01 11:56 47.65872 -118.51836 23520 ft 371 kts 276°
2026-05-01 11:57 47.66167 -118.55630 24159 ft 369 kts 276°
2026-05-01 11:57 47.66361 -118.58128 24583 ft 368 kts 276°
2026-05-01 11:57 47.66750 -118.63150 25440 ft 365 kts 276°
2026-05-01 11:57 47.66851 -118.64464 25655 ft 365 kts 276°
2026-05-01 11:58 47.67137 -118.68195 26078 ft 366 kts 276°
2026-05-01 11:58 47.67421 -118.71901 26079 ft 365 kts 276°
2026-05-01 11:58 47.67988 -118.79362 26108 ft 365 kts 276°
2026-05-01 11:59 47.68271 -118.83109 26111 ft 365 kts 276°
2026-05-01 11:59 47.68553 -118.86862 26109 ft 366 kts 276°
2026-05-01 11:59 47.68834 -118.90621 26108 ft 367 kts 276°
2026-05-01 12:00 47.69394 -118.98151 26105 ft 367 kts 276°
2026-05-01 12:00 47.69671 -119.01908 26103 ft 366 kts 276°
2026-05-01 12:00 47.70129 -119.08149 26102 ft 365 kts 275°
2026-05-01 12:01 47.70491 -119.13112 26102 ft 365 kts 275°
2026-05-01 12:01 47.70762 -119.16853 26099 ft 364 kts 275°
2026-05-01 12:01 47.71031 -119.20589 26094 ft 363 kts 275°
2026-05-01 12:01 47.71299 -119.24313 26099 ft 363 kts 275°
2026-05-01 12:02 47.71566 -119.28042 26102 ft 363 kts 275°
2026-05-01 12:02 47.71831 -119.31765 26097 ft 362 kts 275°
2026-05-01 12:02 47.72005 -119.34222 26100 ft 362 kts 275°
2026-05-01 12:02 47.72268 -119.37938 26108 ft 362 kts 275°
2026-05-01 12:03 47.72530 -119.41660 26100 ft 362 kts 275°
2026-05-01 12:03 47.72790 -119.45377 26098 ft 362 kts 275°
2026-05-01 12:03 47.73051 -119.49102 26096 ft 363 kts 275°
2026-05-01 12:03 47.73431 -119.54033 26098 ft 363 kts 276°
2026-05-01 12:04 47.73633 -119.56548 26101 ft 363 kts 276°
2026-05-01 12:04 47.73934 -119.60276 26101 ft 364 kts 276°
2026-05-01 12:04 47.74229 -119.63951 26101 ft 364 kts 276°
2026-05-01 12:04 47.74526 -119.67684 26096 ft 364 kts 276°
2026-05-01 12:05 47.74820 -119.71416 26098 ft 364 kts 276°
2026-05-01 12:05 47.75403 -119.78887 26095 ft 364 kts 276°
2026-05-01 12:05 47.75692 -119.82621 26094 ft 364 kts 276°
2026-05-01 12:06 47.75980 -119.86352 26095 ft 363 kts 276°
2026-05-01 12:06 47.76266 -119.90088 26095 ft 363 kts 276°
2026-05-01 12:06 47.76551 -119.93819 26093 ft 363 kts 276°
2026-05-01 12:06 47.76830 -119.97487 26095 ft 363 kts 276°
2026-05-01 12:07 47.77113 -120.01223 26091 ft 363 kts 276°
2026-05-01 12:07 47.77395 -120.04951 26087 ft 363 kts 276°
2026-05-01 12:07 47.77674 -120.08676 26091 ft 363 kts 276°
2026-05-01 12:07 47.77952 -120.12394 26090 ft 363 kts 276°
2026-05-01 12:08 47.78229 -120.16120 26080 ft 362 kts 276°
2026-05-01 12:08 47.78505 -120.19844 26088 ft 362 kts 276°
2026-05-01 12:08 47.78779 -120.23563 26084 ft 362 kts 276°
2026-05-01 12:08 47.79053 -120.27287 26093 ft 362 kts 276°
2026-05-01 12:09 47.79325 -120.31010 26090 ft 362 kts 276°
2026-05-01 12:09 47.79596 -120.34725 26088 ft 362 kts 276°
2026-05-01 12:09 47.79862 -120.38394 26094 ft 362 kts 275°
2026-05-01 12:09 47.80131 -120.42115 26093 ft 362 kts 275°
2026-05-01 12:10 47.80398 -120.45825 26104 ft 361 kts 275°
2026-05-01 12:10 47.80928 -120.53251 26097 ft 361 kts 275°
2026-05-01 12:10 47.81192 -120.56970 26103 ft 361 kts 275°
2026-05-01 12:11 47.81713 -120.64366 26097 ft 353 kts 275°
2026-05-01 12:11 47.81965 -120.67958 26095 ft 348 kts 275°
2026-05-01 12:11 47.82215 -120.71538 26107 ft 347 kts 275°
2026-05-01 12:12 47.82463 -120.75115 26116 ft 348 kts 275°
2026-05-01 12:12 47.82708 -120.78672 25857 ft 350 kts 275°
2026-05-01 12:12 47.82955 -120.82272 25539 ft 347 kts 275°
2026-05-01 12:12 47.83035 -120.83444 25427 ft 346 kts 275°
2026-05-01 12:13 47.83249 -120.86594 25125 ft 344 kts 275°
2026-05-01 12:13 47.83486 -120.90086 24783 ft 342 kts 275°
2026-05-01 12:13 47.83726 -120.93633 24433 ft 340 kts 275°
2026-05-01 12:13 47.83960 -120.97112 24094 ft 338 kts 275°
2026-05-01 12:14 47.84193 -121.00583 23734 ft 337 kts 274°
2026-05-01 12:14 47.84424 -121.04044 23339 ft 335 kts 274°
2026-05-01 12:14 47.84653 -121.07497 22955 ft 333 kts 274°
2026-05-01 12:14 47.84880 -121.10915 22598 ft 331 kts 274°
2026-05-01 12:15 47.85101 -121.14268 22244 ft 329 kts 274°
2026-05-01 12:15 47.85321 -121.17636 21916 ft 326 kts 274°
2026-05-01 12:15 47.85540 -121.20992 21567 ft 325 kts 274°
2026-05-01 12:15 47.85757 -121.24334 21223 ft 323 kts 274°
2026-05-01 12:16 47.85972 -121.27662 20898 ft 321 kts 273°
2026-05-01 12:16 47.86179 -121.30919 20569 ft 318 kts 273°
2026-05-01 12:16 47.86389 -121.34187 20231 ft 317 kts 273°
2026-05-01 12:16 47.86596 -121.37435 19915 ft 315 kts 273°
2026-05-01 12:17 47.86803 -121.40672 19561 ft 312 kts 273°
2026-05-01 12:17 47.87005 -121.43876 19257 ft 310 kts 272°
2026-05-01 12:17 47.87206 -121.47072 18942 ft 309 kts 272°
2026-05-01 12:17 47.87406 -121.50255 18620 ft 308 kts 272°
2026-05-01 12:18 47.87595 -121.53430 18281 ft 306 kts 272°
2026-05-01 12:18 47.87795 -121.56579 17936 ft 304 kts 273°
2026-05-01 12:18 47.87993 -121.59712 17580 ft 303 kts 272°
2026-05-01 12:18 47.88182 -121.62772 17266 ft 299 kts 273°
2026-05-01 12:19 47.88370 -121.65833 16979 ft 296 kts 272°
2026-05-01 12:19 47.88344 -121.68879 16587 ft 294 kts 254°
2026-05-01 12:19 47.87546 -121.71630 16282 ft 289 kts 234°
2026-05-01 12:19 47.86191 -121.73817 15972 ft 287 kts 223°
2026-05-01 12:20 47.84713 -121.75806 15652 ft 286 kts 222°
2026-05-01 12:20 47.83230 -121.77769 15348 ft 285 kts 222°
2026-05-01 12:20 47.81757 -121.79734 15030 ft 284 kts 222°
2026-05-01 12:20 47.80314 -121.81675 14731 ft 283 kts 222°
2026-05-01 12:21 47.78867 -121.83628 14425 ft 282 kts 222°
2026-05-01 12:21 47.77409 -121.85596 14115 ft 282 kts 222°
2026-05-01 12:21 47.75969 -121.87542 13940 ft 278 kts 222°
2026-05-01 12:21 47.74538 -121.89473 13775 ft 279 kts 223°
2026-05-01 12:22 47.73087 -121.91428 13629 ft 285 kts 222°
2026-05-01 12:22 47.71608 -121.93421 13476 ft 289 kts 222°
2026-05-01 12:22 47.70535 -121.94866 13368 ft 288 kts 222°
2026-05-01 12:22 47.69072 -121.96834 13216 ft 286 kts 222°
2026-05-01 12:23 47.67598 -121.98817 13057 ft 284 kts 222°
2026-05-01 12:23 47.66119 -122.00805 12934 ft 283 kts 222°
2026-05-01 12:23 47.64687 -122.02729 12789 ft 282 kts 222°
2026-05-01 12:23 47.63238 -122.04673 12658 ft 281 kts 222°
2026-05-01 12:24 47.61791 -122.06614 12525 ft 280 kts 222°
2026-05-01 12:24 47.60348 -122.08549 12389 ft 280 kts 222°
2026-05-01 12:24 47.58906 -122.10480 12254 ft 280 kts 222°
2026-05-01 12:24 47.57462 -122.12410 12117 ft 280 kts 222°
2026-05-01 12:25 47.56013 -122.14347 11967 ft 280 kts 222°
2026-05-01 12:25 47.52422 -122.16312 11391 ft 290 kts 184°
2026-05-01 12:25 47.50403 -122.16389 11047 ft 290 kts 182°
2026-05-01 12:26 47.48396 -122.16378 10706 ft 289 kts 180°
2026-05-01 12:26 47.44391 -122.16066 9916 ft 285 kts 178°
2026-05-01 12:26 47.42492 -122.15888 9504 ft 282 kts 178°
2026-05-01 12:27 47.40502 -122.15701 9074 ft 278 kts 178°
2026-05-01 12:27 47.36678 -122.15360 8255 ft 273 kts 178°
2026-05-01 12:28 47.34429 -122.15175 7770 ft 270 kts 178°
2026-05-01 12:28 47.32563 -122.15031 7378 ft 267 kts 178°
2026-05-01 12:28 47.28873 -122.14772 6603 ft 264 kts 178°
2026-05-01 12:29 47.27046 -122.14660 6278 ft 263 kts 178°
2026-05-01 12:29 47.25247 -122.14557 5983 ft 262 kts 178°
2026-05-01 12:29 47.21636 -122.14355 5599 ft 259 kts 178°
2026-05-01 12:30 47.18267 -122.15546 5379 ft 256 kts 221°
2026-05-01 12:30 47.17269 -122.17678 5251 ft 258 kts 250°
2026-05-01 12:30 47.16945 -122.20269 5134 ft 260 kts 263°
2026-05-01 12:31 47.16786 -122.22934 4986 ft 262 kts 264°
2026-05-01 12:31 47.16693 -122.25610 4828 ft 264 kts 274°
2026-05-01 12:31 47.17267 -122.28146 4656 ft 264 kts 303°
2026-05-01 12:31 47.18522 -122.29991 4564 ft 256 kts 322°
2026-05-01 12:32 47.19990 -122.31394 4430 ft 248 kts 339°
2026-05-01 12:32 47.23227 -122.31964 4248 ft 222 kts 359°
2026-05-01 12:32 47.24737 -122.31979 4131 ft 215 kts
2026-05-01 12:33 47.26242 -122.31965 3858 ft 215 kts
2026-05-01 12:33 47.27718 -122.31950 3577 ft 210 kts
2026-05-01 12:33 47.29143 -122.31936 3315 ft 205 kts
2026-05-01 12:33 47.30564 -122.31924 3049 ft 198 kts
2026-05-01 12:34 47.31916 -122.31912 2781 ft 189 kts
2026-05-01 12:34 47.33161 -122.31901 2561 ft 174 kts
2026-05-01 12:34 47.34325 -122.31891 2322 ft 161 kts
2026-05-01 12:34 47.35403 -122.31882 2103 ft 149 kts
2026-05-01 12:35 47.36446 -122.31872 1900 ft 151 kts
2026-05-01 12:35 47.37493 -122.31861 1744 ft 151 kts
2026-05-01 12:35 47.38551 -122.31863 1534 ft 152 kts
2026-05-01 12:35 47.39598 -122.31850 1312 ft 150 kts
2026-05-01 12:36 47.40629 -122.31838 1102 ft 149 kts
2026-05-01 12:36 47.41665 -122.31839 867 ft 147 kts 360°
2026-05-01 12:36 47.42674 -122.31812 696 ft 144 kts
2026-05-01 12:36 47.43691 -122.31808 481 ft 148 kts 360°
2026-05-01 12:37 47.44705 -122.31802 385 ft 139 kts
2026-05-01 12:37 47.45476 -122.31796 402 ft 81 kts
2026-05-01 12:37 47.45826 -122.31737 414 ft 29 kts 20°
2026-05-01 12:37 47.45983 -122.31568 415 ft 28 kts 59°
2026-05-01 12:38 47.46014 -122.31301 427 ft 26 kts 88°
2026-05-01 12:38 47.46011 -122.31051 429 ft 24 kts 90°
2026-05-01 12:38 47.46011 -122.30810 435 ft 23 kts 90°
2026-05-01 12:38 47.45977 -122.30628 428 ft 17 kts 160°
2026-05-01 12:39 47.45861 -122.30622 434 ft 17 kts 182°
2026-05-01 12:39 47.45746 -122.30620 431 ft 16 kts 180°
2026-05-01 12:39 47.45634 -122.30621 431 ft 17 kts 180°
2026-05-01 12:39 47.45499 -122.30622 425 ft 23 kts 180°
2026-05-01 12:40 47.45320 -122.30623 414 ft 29 kts 180°
2026-05-01 12:40 47.45120 -122.30626 412 ft 28 kts 180°
2026-05-01 12:40 47.44930 -122.30628 407 ft 26 kts 180°
2026-05-01 12:40 47.44809 -122.30537 406 ft 20 kts 97°
2026-05-01 12:41 47.44808 -122.30403 408 ft 9 kts 64°
2026-05-01 12:41 47.44832 -122.30364 406 ft 2 kts 40°
2026-05-01 12:41 47.44839 -122.30355 408 ft 1 kts 40°
2026-05-01 12:41 47.44840 -122.30354 408 ft 0 kts 40°